FW3731 Weather Reports


time (UTC)temp
C
wind
direction
speed
KPH
gust
KPH
rain 1hr
cm
rain 24hr
cm
rain mn
cm
humidity
%
barometer
mb
20260510190034 18 333 12.9 22.5 0.00 0.00 0.00 45 1020.9
20260510184528 18 27 1.6 16.1 0.00 0.00 0.00 47 1020.9
20260510183027 18 37 6.4 19.3 0.00 0.00 0.00 45 1020.8
20260510181525 18 58 6.4 22.5 0.00 0.00 0.00 43 1020.7
20260510180026 18 25 12.9 24.1 0.00 0.00 0.00 42 1020.5
20260510174521 19 37 8.0 20.9 0.00 0.00 0.00 42 1020.3
20260510173021 19 8 8.0 20.9 0.00 0.00 0.00 42 1020.2
20260510171521 19 7 3.2 20.9 0.00 0.00 0.00 44 1020.2
20260510170020 18 63 11.3 24.1 0.00 0.00 0.00 40 1020.1
20260510164523 18 13 9.7 25.7 0.00 0.00 0.00 42 1020.0
20260510163012 18 347 6.4 22.5 0.00 0.00 0.00 46 1020.1
20260510161510 18 360 6.4 20.9 0.00 0.00 0.00 46 1020.3
20260510160009 18 356 12.9 24.1 0.00 0.00 0.00 46 1020.2
20260510154506 18 20 4.8 19.3 0.00 0.00 0.00 51 1020.1
20260510153004 17 319 6.4 22.5 0.00 0.00 0.00 50 1020.1
20260510151502 17 47 6.4 17.7 0.00 0.00 0.00 49 1020.2
20260510150002 17 18 1.6 16.1 0.00 0.00 0.00 55 1020.3
20260510144501 16 21 6.4 20.9 0.00 0.00 0.00 53 1020.3
20260510143102 16 347 4.8 12.9 0.00 0.00 0.00 56 1020.1
20260510141557 16 20 4.8 16.1 0.00 0.00 0.00 57 1019.8
20260510140057 16 350 3.2 17.7 0.00 0.00 0.00 57 1019.8
20260510134557 16 20 3.2 16.1 0.00 0.00 0.00 58 1019.5
20260510133050 16 326 6.4 22.5 0.00 0.00 0.00 56 1019.1
20260510131546 16 337 12.9 25.7 0.00 0.00 0.00 56 1018.7
20260510130045 16 3 8.0 16.1 0.00 0.00 0.00 57 1018.3
20260510124547 16 32 1.6 19.3 0.00 0.00 0.00 60 1018.3
20260510123040 15 13 6.4 22.5 0.00 0.00 0.00 61 1018.2
20260510121538 15 34 6.4 16.1 0.00 0.00 0.00 64 1018.1
20260510120035 15 357 4.8 12.9 0.00 0.00 0.00 65 1017.7
20260510114534 15 326 3.2 12.9 0.00 0.00 0.00 65 1017.7
20260510113032 15 11 8.0 16.1 0.00 0.00 0.00 66 1017.6
20260510111528 15 346 4.8 20.9 0.00 0.00 0.00 68 1017.3
20260510110026 15 11 6.4 16.1 0.00 0.00 0.00 70 1017.1
20260510104522 16 18 4.8 17.7 0.00 0.03 0.00 75 1016.6
20260510103019 16 37 1.6 16.1 0.00 0.03 0.00 76 1016.6
20260510101517 16 301 1.6 11.3 0.00 0.03 0.00 75 1016.5
20260510100014 16 333 0.0 4.8 0.00 0.03 0.00 77 1016.1
20260510094529 16 325 0.0 4.8 0.00 0.03 0.00 75 1015.6
20260510093010 17 351 1.6 9.7 0.00 0.03 0.00 74 1015.4
20260510091507 17 3 0.0 3.2 0.00 0.03 0.00 76 1014.8
20260510090006 17 32 0.0 4.8 0.00 0.03 0.00 75 1014.8
20260510084512 17 1 3.2 9.7 0.00 0.03 0.00 74 1014.7
20260510083107 17 357 1.6 11.3 0.00 0.03 0.00 74 1014.6
20260510081559 17 349 3.2 11.3 0.00 0.03 0.00 74 1014.5
20260510080100 17 352 3.2 9.7 0.00 0.03 0.00 74 1014.3
20260510074554 17 359 3.2 11.3 0.00 0.03 0.00 73 1013.9
20260510073056 17 343 3.2 11.3 0.00 0.03 0.00 73 1013.8
20260510071552 17 341 1.6 11.3 0.00 0.03 0.00 74 1013.6
20260510070050 17 20 4.8 17.7 0.00 0.03 0.00 75 1013.8
20260510064558 17 351 4.8 14.5 0.00 0.03 0.00 76 1013.8
20260510063047 18 342 4.8 19.3 0.00 0.03 0.00 76 1013.8
20260510061547 17 30 8.0 22.5 0.00 0.03 0.00 76 1013.7
20260510060044 17 338 3.2 12.9 0.00 0.03 0.00 79 1013.7
20260510054541 16 232 0.0 0.0 0.00 0.03 0.00 85 1013.7
20260510053037 16 232 0.0 0.0 0.00 0.03 0.00 85 1013.4
20260510051536 16 232 0.0 0.0 0.00 0.03 0.00 83 1013.0
20260510050030 16 230 0.0 0.0 0.00 0.03 0.00 82 1012.9
20260510044528 17 234 0.0 0.0 0.00 0.03 0.03 79 1012.6
20260510043029 17 234 0.0 0.0 0.00 0.03 0.03 78 1012.6
20260510041525 18 205 0.0 1.6 0.00 0.03 0.03 76 1012.2
20260510040023 18 262 0.0 0.0 0.00 0.03 0.03 72 1012.1
20260510034524 20 283 0.0 0.0 0.00 0.03 0.03 69 1012.0
20260510033022 21 316 0.0 1.6 0.00 0.03 0.03 62 1012.0
20260510031521 21 315 0.0 0.0 0.00 0.03 0.03 59 1011.8
20260510030021 21 3 1.6 11.3 0.00 0.03 0.03 61 1011.8
20260510024518 20 347 1.6 14.5 0.00 0.15 0.03 68 1011.3
20260510023015 17 338 1.6 8.0 0.00 0.15 0.03 80 1010.7
20260510021515 18 240 0.0 0.0 0.00 0.15 0.03 81 1009.9
20260510020014 18 239 0.0 0.0 0.00 0.15 0.03 78 1009.3
20260510014513 19 239 0.0 1.6 0.00 0.58 0.03 78 1009.1
20260510013012 20 232 0.0 1.6 0.00 0.58 0.03 78 1008.9
20260510011512 20 209 0.0 1.6 0.00 0.58 0.03 75 1008.8
20260510010011 21 218 0.0 3.2 0.00 0.58 0.03 72 1008.7
20260510004511 22 217 0.0 1.6 0.00 1.17 0.03 67 1008.6
20260510003021 23 226 0.0 1.6 0.00 1.17 0.03 60 1008.6
20260510001510 25 226 0.0 1.6 0.00 1.17 0.03 57 1008.5
20260510000009 26 226 0.0 0.0 0.00 1.17 0.03 50 1008.5
20260509234514 27 226 0.0 1.6 0.00 1.17 0.03 46 1008.5
20260509233007 27 226 0.0 3.2 0.00 1.17 0.03 43 1008.4
20260509231512 28 233 0.0 4.8 0.00 1.17 0.03 43 1008.5
20260509230007 28 243 0.0 6.4 0.00 1.17 0.03 42 1008.5
20260509224506 28 233 1.6 8.0 0.00 1.30 0.03 41 1008.4
20260509223007 28 233 0.0 4.8 0.00 1.30 0.03 38 1008.4
20260509221505 29 264 0.0 8.0 0.00 1.30 0.03 38 1008.3
20260509220013 29 155 3.2 11.3 0.00 1.30 0.03 37 1008.3
20260509214504 29 309 0.0 3.2 0.00 1.40 0.03 39 1008.4
20260509213002 29 224 0.0 4.8 0.00 1.40 0.03 41 1008.5
20260509211600 29 186 0.0 12.9 0.00 1.40 0.03 39 1008.6
20260509210106 29 159 1.6 9.7 0.00 1.40 0.03 41 1008.9
20260509204556 29 225 0.0 6.4 0.00 1.40 0.03 42 1009.1
20260509203054 29 244 0.0 3.2 0.00 1.40 0.03 41 1009.3
20260509201551 28 70 0.0 6.4 0.00 1.40 0.03 42 1009.3
20260509200050 28 335 0.0 9.7 0.00 1.40 0.03 41 1009.5
20260509194547 28 180 0.0 11.3 0.00 1.40 0.03 42 1009.6
20260509193045 28 255 0.0 4.8 0.00 1.40 0.03 44 1009.7
20260509191542 28 264 0.0 6.4 0.00 1.40 0.03 46 1009.7